Change the Weather History Date:

Wednesday, April 3, 2013

  Actual Average Record
Temperature  
Mean Temperature 52 °F -  
Max Temperature 59 °F 67 °F 71 °F (1998)
Min Temperature 46 °F 46 °F 32 °F (2001)
Degree Days  
Heating Degree Days 12    
Growing Degree Days 2 (Base 50)    
Moisture  
Dew Point 48 °F    
Average Humidity 80    
Maximum Humidity 87    
Minimum Humidity 65    
Precipitation  
Precipitation 0.00 in 0.05 in - ()
Sea Level Pressure  
Sea Level Pressure 29.64 in    
Wind  
Wind Speed 9 mph ()    
Max Wind Speed 15 mph    
Max Gust Speed 23 mph    
Visibility 6.5 miles    
Events Rain    
Averages and records for this station are not official NWS values.
T = Trace of Precipitation, MM = Missing Value Source: Averaged Metar Reports

Daily Weather History Graph

Daily Weather History Graph

Search for Another Location

Airport or City:

Trip Planner

Search our weather history database for the weather conditions in past years. The results will help you decide how hot, cold, wet, or windy it might be!

Date:

Astronomy

Apr. 03, 2013 Rise Set
Actual Time 6:36 AM CEST 7:24 PM CEST
Civil Twilight 6:08 AM CEST 7:52 PM CEST
Nautical Twilight 5:35 AM CEST 8:26 PM CEST
Astronomical Twilight 5:01 AM CEST 9:00 PM CEST
Moon 2:07 AM CEST (4/3) 12:12 PM CEST (4/3)
Length of Visible Light 13h 43m
Length of Day
12h 47m
Waning Gibbous, 47% of the Moon is Illuminated
Apr 3
Waning Gibbous
Apr 10
New
Apr 18
First Quarter
Apr 25
Full
May 2
Last Quarter

Hourly Weather History & Observations

Time (CEST) Temp. Windchill Dew Point Humidity Pressure Visibility Wind Dir Wind Speed Gust Speed Precip Events Conditions
6:55 AM 46.4 °F 41.5 °F 42.8 °F 87% 29.53 in 5.0 mi WNW 10.4 mph - N/A   Mostly Cloudy
7:55 AM 48.2 °F - 42.8 °F 82% 29.56 in 6.2 mi WNW 11.5 mph - N/A   Scattered Clouds
8:00 AM 47 °F - 43 °F 79% 29.58 in 6 mi WNW 11.5 mph - -  
8:55 AM 48.2 °F - 44.6 °F 87% 29.59 in 6.2 mi West 11.5 mph - N/A   Scattered Clouds
9:55 AM 51.8 °F - 46.4 °F 82% 29.59 in 6.2 mi WNW 11.5 mph 23.0 mph N/A   Scattered Clouds
11:00 AM 54 °F - 49 °F 76% 29.62 in 6 mi WNW 15.0 mph - -   Partly Cloudy
11:55 AM 55.4 °F - 50.0 °F 82% 29.62 in 6.2 mi NNW 13.8 mph - N/A   Scattered Clouds
12:55 PM 57.2 °F - 50.0 °F 77% 29.62 in 6.2 mi NW 9.2 mph - N/A   Scattered Clouds
1:55 PM 59.0 °F - 50.0 °F 72% 29.62 in 6.2 mi WNW 9.2 mph - N/A   Scattered Clouds
2:00 PM 59 °F - 50 °F 65% 29.64 in 12 mi WNW 9.2 mph - -  
2:55 PM 59.0 °F - 51.8 °F 77% 29.62 in 6.2 mi WNW 6.9 mph - N/A   Scattered Clouds
3:55 PM 59.0 °F - 51.8 °F 77% 29.62 in 6.2 mi WNW 9.2 mph - N/A   Scattered Clouds
4:55 PM 59.0 °F - 51.8 °F 77% 29.65 in 6.2 mi WNW 10.4 mph - N/A   Mostly Cloudy
5:00 PM 59 °F - 51 °F 69% 29.66 in 9 mi WNW 10.4 mph - -   Mostly Cloudy
5:55 PM 57.2 °F - 50.0 °F 77% 29.68 in 6.2 mi WNW 10.4 mph - N/A   Mostly Cloudy
6:55 PM 53.6 °F - 48.2 °F 82% 29.68 in 6.2 mi WNW 15.0 mph - N/A Rain Light Rain
7:55 PM 50.0 °F - 46.4 °F 87% 29.71 in 6.2 mi West 10.4 mph - N/A   Mostly Cloudy
8:00 PM 50 °F - 47 °F 86% 29.73 in 6 mi West 10.4 mph - -  
8:55 PM 50.0 °F - 46.4 °F 87% 29.74 in 6.2 mi West 10.4 mph - N/A   Scattered Clouds
9:55 PM 48.2 °F - 44.6 °F 87% 29.74 in 6.2 mi WSW 6.9 mph - N/A   Scattered Clouds